Dublin, Ireland

7:28 AM IST on August 21, 2017 (GMT +0100)
Dublin International

Weather History for EIDW - March, 2014

Change the Weather History Date:

Saturday, March 15, 2014

  Actual Average Record
Temperature  
Mean Temperature 51 °F -  
Max Temperature 58 °F 51 °F 61 °F (2017)
Min Temperature 44 °F 39 °F 26 °F (2011)
Degree Days  
Heating Degree Days 14    
Growing Degree Days 1 (Base 50)    
Moisture  
Dew Point 44 °F    
Average Humidity 82    
Maximum Humidity 100    
Minimum Humidity 59    
Precipitation  
Precipitation 0.00 in 0.07 in - ()
Sea Level Pressure  
Sea Level Pressure 30.38 in    
Wind  
Wind Speed 20 mph ()    
Max Wind Speed 30 mph    
Max Gust Speed -    
Visibility 8.7 miles    
Events      
Averages and records for this station are not official NWS values.
T = Trace of Precipitation, MM = Missing Value Source: Averaged Metar Reports

Daily Weather History Graph

Daily Weather History Graph

Search for Another Location

Airport or City:

Trip Planner

Search our weather history database for the weather conditions in past years. The results will help you decide how hot, cold, wet, or windy it might be!

Date:

Astronomy

Mar. 15, 2014 Rise Set
Actual Time 6:39 AM GMT 6:28 PM GMT
Civil Twilight 6:05 AM GMT 7:03 PM GMT
Nautical Twilight 5:24 AM GMT 7:44 PM GMT
Astronomical Twilight 4:42 AM GMT 8:26 PM GMT
Moon 5:31 PM GMT (3/15) 5:51 AM GMT (3/15)
Length of Visible Light 12h 58m
Length of Day
11h 48m
Waxing Gibbous, 99% of the Moon is Illuminated
Mar 15
Waxing Gibbous
Mar 16
Full
Mar 24
Last Quarter
Mar 30
New
Apr 7
First Quarter

Hourly Weather History & Observations

Time (GMT) Temp. Windchill Dew Point Humidity Pressure Visibility Wind Dir Wind Speed Gust Speed Precip Events Conditions
12:00 AM 46 °F - 43 °F 86% 30.43 in 11 mi WSW 11.2 mph - -   Mostly Cloudy
12:00 AM 46.4 °F 41.5 °F 42.8 °F 87% 30.42 in 6.2 mi WSW 10.4 mph - N/A   Mostly Cloudy
12:30 AM 46.4 °F 41.5 °F 42.8 °F 87% 30.42 in 6.2 mi WSW 10.4 mph - N/A   Mostly Cloudy
1:00 AM 46 °F - 43 °F 85% 30.42 in 11 mi WSW 15.7 mph - -   Mostly Cloudy
1:00 AM 46.4 °F 40.1 °F 42.8 °F 87% 30.39 in 6.2 mi WSW 15.0 mph - N/A   Mostly Cloudy
1:30 AM 46.4 °F 40.1 °F 42.8 °F 87% 30.39 in 6.2 mi WSW 15.0 mph - N/A   Mostly Cloudy
2:00 AM 46 °F - 42 °F 80% 30.40 in 11 mi WSW 17.9 mph - -   Mostly Cloudy
2:00 AM 46.4 °F 39.5 °F 42.8 °F 87% 30.39 in 6.2 mi WSW 17.3 mph - N/A   Mostly Cloudy
2:30 AM 46.4 °F 39.5 °F 42.8 °F 87% 30.36 in 6.2 mi WSW 17.3 mph - N/A   Mostly Cloudy
3:00 AM 46 °F - 42 °F 81% 30.38 in 11 mi WSW 22.4 mph - -   Mostly Cloudy
3:00 AM 46.4 °F 38.5 °F 42.8 °F 87% 30.36 in 6.2 mi WSW 21.9 mph - N/A   Mostly Cloudy
3:30 AM 46.4 °F 37.9 °F 42.8 °F 87% 30.36 in 6.2 mi West 25.3 mph - N/A   Mostly Cloudy
4:00 AM 46 °F - 42 °F 80% 30.38 in 11 mi West 22.4 mph - -   Mostly Cloudy
4:00 AM 46.4 °F 38.3 °F 42.8 °F 87% 30.36 in 6.2 mi West 23.0 mph - N/A   Mostly Cloudy
4:30 AM 46.4 °F 37.9 °F 42.8 °F 87% 30.36 in 6.2 mi West 25.3 mph - N/A   Mostly Cloudy
5:00 AM 45 °F - 42 °F 85% 30.37 in 11 mi WSW 26.8 mph - -   Mostly Cloudy
5:00 AM 46.4 °F 37.9 °F 42.8 °F 87% 30.36 in 6.2 mi WSW 25.3 mph - N/A   Mostly Cloudy
5:30 AM 44.6 °F 35.5 °F 41.0 °F 87% 30.33 in 6.2 mi WSW 25.3 mph - N/A   Mostly Cloudy
6:00 AM 45 °F - 41 °F 82% 30.36 in 11 mi West 29.1 mph - -   Scattered Clouds
6:00 AM 44.6 °F 35.1 °F 41.0 °F 87% 30.33 in 6.2 mi West 27.6 mph - N/A   Scattered Clouds
6:30 AM 44.6 °F 34.9 °F 41.0 °F 87% 30.36 in 6.2 mi West 28.8 mph - N/A   Mostly Cloudy
7:00 AM 44 °F - 41 °F 86% 30.39 in 19 mi West 26.8 mph - -   Scattered Clouds
7:00 AM 44.6 °F 35.3 °F 41.0 °F 87% 30.36 in 6.2 mi West 26.5 mph - N/A   Mostly Cloudy
7:30 AM 44.6 °F 35.9 °F 41.0 °F 87% 30.39 in 6.2 mi West 23.0 mph - N/A   Scattered Clouds
8:00 AM 46 °F - 42 °F 80% 30.40 in 19 mi WSW 29.1 mph - -   Scattered Clouds
8:00 AM 46.4 °F 37.2 °F 41.0 °F 81% 30.36 in 6.2 mi WSW 29.9 mph - N/A   Scattered Clouds
8:30 AM 46.4 °F 38.1 °F 42.8 °F 87% 30.39 in 6.2 mi West 24.2 mph - N/A   Mostly Cloudy
9:00 AM 46 °F - 42 °F 80% 30.42 in 19 mi West 26.8 mph - -   Scattered Clouds
9:00 AM 46.4 °F 37.7 °F 41.0 °F 81% 30.39 in 6.2 mi West 26.5 mph - N/A   Scattered Clouds
9:30 AM 46.4 °F 38.7 °F 41.0 °F 81% 30.42 in 6.2 mi West 20.7 mph - N/A   Scattered Clouds
10:00 AM 47 °F - 42 °F 77% 30.44 in 19 mi West 22.4 mph - -   Mostly Cloudy
10:00 AM 46.4 °F 38.5 °F 42.8 °F 87% 30.42 in 6.2 mi West 21.9 mph - N/A   Mostly Cloudy
10:30 AM 48.2 °F - 42.8 °F 82% 30.42 in 6.2 mi West 23.0 mph - N/A   Mostly Cloudy
11:00 AM 49 °F - 44 °F 76% 30.42 in 19 mi West 24.6 mph - -   Mostly Cloudy
11:00 AM 48.2 °F - 42.8 °F 82% 30.39 in 6.2 mi West 25.3 mph - N/A   Mostly Cloudy
11:30 AM 50.0 °F - 44.6 °F 82% 30.42 in 6.2 mi West 23.0 mph - N/A   Mostly Cloudy
12:00 PM 51 °F - 45 °F 72% 30.43 in 19 mi West 26.8 mph - -   Mostly Cloudy
12:00 PM 50.0 °F - 44.6 °F 82% 30.42 in 6.2 mi West 26.5 mph - N/A   Mostly Cloudy
12:30 PM 51.8 °F - 46.4 °F 82% 30.39 in 6.2 mi West 27.6 mph - N/A   Mostly Cloudy
1:00 PM 53 °F - 46 °F 71% 30.42 in 19 mi West 24.6 mph - -   Mostly Cloudy
1:00 PM 53.6 °F - 46.4 °F 77% 30.39 in 6.2 mi West 25.3 mph - N/A   Mostly Cloudy
1:30 PM 53.6 °F - 46.4 °F 77% 30.39 in 6.2 mi West 27.6 mph - N/A   Mostly Cloudy
2:00 PM 56 °F - 47 °F 63% 30.39 in 25 mi West 26.8 mph - -   Mostly Cloudy
2:00 PM 55.4 °F - 48.2 °F 77% 30.39 in 6.2 mi West 27.6 mph - N/A   Mostly Cloudy
2:30 PM 55.4 °F - 48.2 °F 77% 30.36 in 6.2 mi West 29.9 mph - N/A   Mostly Cloudy
3:00 PM 56 °F - 47 °F 63% 30.39 in 25 mi West 26.8 mph - -   Scattered Clouds
3:00 PM 55.4 °F - 46.4 °F 72% 30.36 in 6.2 mi West 26.5 mph - N/A   Mostly Cloudy
3:30 PM 57.2 °F - 48.2 °F 72% 30.36 in 6.2 mi West 23.0 mph - N/A   Mostly Cloudy
4:00 PM 58 °F - 48 °F 59% 30.37 in 25 mi West 24.6 mph - -   Scattered Clouds
4:00 PM 57.2 °F - 48.2 °F 72% 30.36 in 6.2 mi West 25.3 mph - N/A   Mostly Cloudy
4:30 PM 57.2 °F - 48.2 °F 72% 30.33 in 6.2 mi West 26.5 mph - N/A   Scattered Clouds
5:00 PM 57 °F - 48 °F 64% 30.37 in 25 mi West 22.4 mph - -   Scattered Clouds
5:00 PM 57.2 °F - 48.2 °F 72% 30.36 in 6.2 mi West 24.2 mph - N/A   Mostly Cloudy
5:30 PM 55.4 °F - 48.2 °F 77% 30.36 in 6.2 mi WSW 23.0 mph - N/A   Mostly Cloudy
6:00 PM 54 °F - 48 °F 72% 30.37 in 25 mi West 24.6 mph - -   Scattered Clouds
6:00 PM 53.6 °F - 48.2 °F 82% 30.36 in 6.2 mi WSW 24.2 mph - N/A   Mostly Cloudy
6:30 PM 53.6 °F - 48.2 °F 82% 30.36 in 6.2 mi WSW 25.3 mph - N/A   Mostly Cloudy
7:00 PM 52 °F - 47 °F 78% 30.38 in 19 mi WSW 22.4 mph - -   Scattered Clouds
7:00 PM 51.8 °F - 46.4 °F 82% 30.36 in 6.2 mi WSW 21.9 mph - N/A   Mostly Cloudy
7:30 PM 50.0 °F - 46.4 °F 87% 30.36 in 6.2 mi WSW 24.2 mph - N/A   Mostly Cloudy
8:00 PM 50 °F - 46 °F 83% 30.38 in 19 mi WSW 22.4 mph - -   Scattered Clouds
8:00 PM 50.0 °F - 46.4 °F 87% 30.36 in 6.2 mi WSW 23.0 mph - N/A   Mostly Cloudy
8:30 PM 50.0 °F - 46.4 °F 87% 30.36 in 6.2 mi WSW 23.0 mph - N/A   Mostly Cloudy
9:00 PM 49 °F - 46 °F 84% 30.37 in 19 mi WSW 22.4 mph - -   Scattered Clouds
9:00 PM 48.2 °F - 46.4 °F 93% 30.36 in 6.2 mi WSW 23.0 mph - N/A   Mostly Cloudy
9:30 PM 48.2 °F - 44.6 °F 87% 30.36 in 6.2 mi WSW 21.9 mph - N/A   Mostly Cloudy
10:00 PM 47 °F - 45 °F 90% 30.38 in 25 mi WSW 22.4 mph - -   Scattered Clouds
10:00 PM 48.2 °F - 44.6 °F 87% 30.36 in 6.2 mi WSW 21.9 mph - N/A   Partly Cloudy
10:30 PM 46.4 °F 38.3 °F 44.6 °F 93% 30.36 in 6.2 mi West 23.0 mph - N/A   Scattered Clouds
11:00 PM 46 °F - 44 °F 89% 30.38 in 25 mi West 20.1 mph - -   Scattered Clouds
11:00 PM 46.4 °F 38.7 °F 44.6 °F 93% 30.36 in 6.2 mi West 20.7 mph - N/A   Mostly Cloudy
11:30 PM 44.6 °F 35.9 °F 44.6 °F 100% 30.36 in 6.2 mi WSW 23.0 mph - N/A   Mostly Cloudy